Location: Bonn
(50.7330°N, 7.1000°E)
Time: 07:28:06
(UTC+02:00)

Cosmos 1933 Rocket - Visible Passes

Search period start: 24 June 2018 00:00
Search period end: 04 July 2018 00:00
Orbit: 607 x 630 km, 82.5° (Epoch: 23 June)

Date Brightness Start Highest point End Pass type
(mag) Time Alt. Az. Time Alt. Az. Time Alt. Az.
24 Jun 5.5 01:39:27 12° SE 01:42:04 20° E 01:45:13 10° NE visible
24 Jun 4.0 03:16:35 19° SW 03:19:33 50° WNW 03:23:52 10° N visible
25 Jun 4.8 01:56:36 18° SE 01:59:04 32° E 02:02:58 10° NNE visible
25 Jun 4.8 03:33:44 14° SW 03:36:54 30° WNW 03:40:50 10° N visible
26 Jun 3.9 02:13:44 24° SSE 02:16:08 56° E 02:20:26 10° NNE visible
26 Jun 5.4 03:51:13 10° WSW 03:54:22 19° WNW 03:57:33 10° NNW visible
27 Jun 5.9 00:54:27 10° ESE 00:56:09 12° E 00:57:52 10° ENE visible
27 Jun 3.5 02:30:51 26° SSW 02:33:18 84° WNW 02:37:43 10° N visible
27 Jun 5.9 04:10:11 10° W 04:11:56 12° WNW 04:13:42 10° NW visible
28 Jun 5.4 01:10:49 14° ESE 01:13:03 20° E 01:16:17 10° NE visible
28 Jun 4.1 02:47:58 22° SW 02:50:33 49° WNW 02:54:52 10° N visible
29 Jun 4.7 01:27:55 21° SE 01:30:02 33° E 01:34:00 10° NNE visible
29 Jun 4.9 03:05:04 15° WSW 03:07:55 29° WNW 03:11:49 10° N visible
30 Jun 3.8 01:45:01 28° SSE 01:47:07 58° E 01:51:28 10° NNE visible
30 Jun 5.5 03:22:17 10° WSW 03:25:23 19° WNW 03:28:31 10° NNW visible
01 Jul 5.8 00:25:15 10° ESE 00:27:08 13° E 00:29:00 10° NE visible
01 Jul 3.5 02:02:05 29° SSW 02:04:17 82° W 02:08:44 10° N visible
01 Jul 6.0 03:41:19 10° W 03:42:57 12° WNW 03:44:36 10° NW visible
02 Jul 5.3 00:42:01 16° ESE 00:44:01 21° E 00:47:20 10° NE visible
02 Jul 4.2 02:19:09 23° SW 02:21:34 47° WNW 02:25:52 10° N visible
03 Jul 4.5 00:59:04 23° SE 01:01:01 35° E 01:05:02 10° NNE visible
03 Jul 5.0 02:36:12 16° WSW 02:38:55 29° WNW 02:42:49 10° N visible
